KC5KKT Weather Reports


time (UTC)temp
C
wind
direction
speed
KPH
gust
KPH
rain 1hr
cm
rain 24hr
cm
rain mn
cm
humidity
%
barometer
mb
20260506073039 12 359 16.1 25.7 0.00 0.00 0.00 79 1010.9
20260506071537 12 353 17.7 25.7 0.00 0.00 0.00 79 1010.5
20260506061552 12 41 16.1 25.7 0.00 0.00 0.00 80 1010.5
20260506044543 12 320 12.9 24.1 0.00 0.00 0.00 81 1010.7
20260506043039 12 356 16.1 29.0 0.00 0.00 0.00 81 1010.7
20260506041542 13 330 14.5 24.1 0.00 0.00 0.00 82 1010.6
20260506040040 13 28 19.3 32.2 0.00 0.00 0.00 82 1010.3
20260506034536 13 21 20.9 30.6 0.00 0.00 0.00 82 1010.6
20260506033049 13 5 20.9 29.0 0.00 0.00 0.00 82 1010.4
20260506031542 13 5 14.5 27.4 0.00 0.00 0.00 83 1010.1
20260506030040 13 19 14.5 24.1 0.00 0.00 0.00 84 1010.1
20260506024537 14 2 14.5 29.0 0.00 0.00 0.00 84 1009.8
20260506023049 14 4 14.5 33.8 0.00 0.00 0.00 85 1009.4
20260506021540 14 343 22.5 32.2 0.00 0.00 0.00 84 1008.6
20260506020108 15 10 20.9 33.8 0.00 0.00 0.00 84 1007.7
20260506014534 15 348 20.9 32.2 0.00 0.00 0.00 84 1007.7
20260506013034 15 330 20.9 32.2 0.00 0.00 0.00 84 1007.4
20260506011541 16 18 16.1 32.2 0.00 0.00 0.00 84 1007.1
20260506010040 16 345 20.9 32.2 0.00 0.00 0.00 82 1006.4
20260506004542 17 337 20.9 30.6 0.00 0.00 0.00 81 1006.8
20260506003035 17 349 19.3 30.6 0.00 0.00 0.00 80 1006.5
20260506001544 18 3 20.9 30.6 0.00 0.00 0.00 79 1006.1
20260506000056 19 317 14.5 22.5 0.00 0.00 0.00 79 1006.1
20260505234542 19 324 12.9 22.5 0.00 0.00 0.00 78 1006.5
20260505233034 20 304 12.9 30.6 0.00 0.00 0.00 78 1006.0
20260505231538 20 326 11.3 27.4 0.00 0.00 0.00 76 1005.9
20260505230049 21 318 8.0 24.1 0.00 0.00 0.00 75 1006.1
20260505224546 21 343 8.0 20.9 0.00 0.00 0.00 75 1006.0
20260505223039 22 342 6.4 19.3 0.00 0.00 0.00 74 1005.7
20260505221547 22 352 11.3 22.5 0.00 0.00 0.00 73 1005.3
20260505220058 22 295 11.3 25.7 0.00 0.00 0.00 73 1005.0
20260505214546 23 306 9.7 22.5 0.00 0.00 0.00 70 1005.0
20260505213039 25 326 6.4 17.7 0.00 0.00 0.00 68 1004.7
20260505211604 25 303 4.8 20.9 0.00 0.00 0.00 68 1005.0
20260505210043 26 302 6.4 16.1 0.00 0.00 0.00 65 1005.1
20260505204555 27 277 8.0 17.7 0.00 0.00 0.00 64 1005.0
20260505203039 28 274 6.4 25.7 0.00 0.00 0.00 60 1004.8
20260505201542 27 255 9.7 24.1 0.00 0.00 0.00 57 1004.7
20260505200039 27 283 12.9 25.7 0.00 0.00 0.00 50 1004.8
20260505194539 27 273 8.0 20.9 0.00 0.00 0.00 52 1004.6
20260505193044 27 265 6.4 32.2 0.00 0.00 0.00 50 1004.6
20260505191537 28 224 19.3 38.6 0.00 0.00 0.00 63 1004.4
20260505190041 27 234 14.5 25.7 0.00 0.00 0.00 70 1004.2
20260505184542 27 253 16.1 30.6 0.00 0.00 0.00 68 1004.2
20260505183038 27 219 17.7 32.2 0.00 0.00 0.00 68 1004.0
20260505181552 27 229 20.9 29.0 0.00 0.00 0.00 67 1004.2
20260505180037 27 201 16.1 27.4 0.00 0.00 0.00 68 1004.3
20260505174543 27 208 19.3 32.2 0.00 0.00 0.00 68 1004.2
20260505173039 27 230 14.5 30.6 0.00 0.00 0.00 69 1004.2
20260505171541 26 220 20.9 33.8 0.00 0.00 0.00 70 1004.3
20260505170044 26 199 14.5 32.2 0.00 0.00 0.00 76 1003.9
20260505164540 25 214 12.9 27.4 0.00 0.00 0.00 75 1003.8
20260505163040 25 156 12.9 24.1 0.00 0.00 0.00 78 1003.9
20260505161538 24 197 12.9 24.1 0.00 0.00 0.00 79 1003.8
20260505153046 23 173 14.5 27.4 0.00 0.00 0.00 79 1003.4
20260505151538 23 221 17.7 33.8 0.00 0.00 0.00 79 1003.4
20260505124557 20 189 16.1 25.7 0.00 0.00 0.00 90 1002.7
20260505123059 20 193 16.1 29.0 0.00 0.00 0.00 91 1002.5
20260505121538 20 174 16.1 32.2 0.00 0.00 0.00 91 1002.5
20260505120059 20 171 17.7 29.0 0.00 0.00 0.00 91 1002.2
20260505114544 20 170 20.9 27.4 0.00 0.00 0.00 91 1002.2
20260505113039 20 161 16.1 25.7 0.00 0.00 0.00 90 1002.2
20260505111539 20 169 17.7 27.4 0.00 0.00 0.00 90 1002.2
20260505101538 21 165 19.3 32.2 0.00 0.00 0.00 87 1002.3
20260505100041 21 164 17.7 35.4 0.00 0.00 0.00 86 1002.4
20260505094539 21 157 20.9 30.6 0.00 0.00 0.00 85 1002.2
20260505093037 21 164 24.1 33.8 0.00 0.00 0.00 84 1002.2
20260505091552 21 169 19.3 33.8 0.00 0.00 0.00 83 1002.4
20260505090044 22 167 22.5 40.2 0.00 0.00 0.00 82 1002.5
20260505084539 22 159 20.9 32.2 0.00 0.00 0.00 81 1002.7
20260505083054 22 179 20.9 32.2 0.00 0.00 0.00 81 1002.4
20260505081548 22 165 20.9 30.6 0.00 0.00 0.00 80 1002.6